Time,TemperatureF,DewpointF,PressureIn,WindDirection,WindDirectionDegrees,WindSpeedMPH,WindSpeedGustMPH,Humidity,HourlyPrecipIn,Conditions,Clouds,dailyrainin,SoftwareType,DateUTC
2013-01-13 00:03:00,11.7,-15.9,30.00,South,190,0.0,0.0,27,-99.99,,---,-99.99,VWS V14.01,2013-01-13 08:03:00,
2013-01-13 00:08:00,11.7,-15.9,30.00,South,190,0.0,0.0,27,-99.99,,---,-99.99,VWS V14.01,2013-01-13 08:08:00,
2013-01-13 00:13:00,11.7,-15.9,30.00,South,190,0.0,0.0,27,-99.99,,---,-99.99,VWS V14.01,2013-01-13 08:13:00,
2013-01-13 00:18:00,11.7,-15.9,30.00,South,190,0.0,0.0,27,-99.99,,---,-99.99,VWS V14.01,2013-01-13 08:18:00,
2013-01-13 00:23:00,11.7,-15.9,30.00,South,190,0.0,0.0,27,-99.99,,---,-99.99,VWS V14.01,2013-01-13 08:23:00,
2013-01-13 00:28:00,11.7,-15.9,30.00,South,190,0.0,0.0,27,-99.99,,---,-99.99,VWS V14.01,2013-01-13 08:28:00,
2013-01-13 00:33:00,11.7,-15.9,30.00,South,190,0.0,0.0,27,-99.99,,---,-99.99,VWS V14.01,2013-01-13 08:33:00,
2013-01-13 00:38:00,11.7,-15.9,30.00,South,190,0.0,0.0,27,-99.99,,---,-99.99,VWS V14.01,2013-01-13 08:38:00,
2013-01-13 00:43:00,11.7,-15.9,30.00,South,190,0.0,0.0,27,-99.99,,---,-99.99,VWS V14.01,2013-01-13 08:43:00,
2013-01-13 00:48:00,11.8,-15.7,30.00,South,190,0.0,0.0,27,-99.99,,---,-99.99,VWS V14.01,2013-01-13 08:48:00,
2013-01-13 00:53:00,11.8,-15.7,30.00,South,190,0.0,0.0,27,-99.99,,---,-99.99,VWS V14.01,2013-01-13 08:53:00,
2013-01-13 00:58:00,11.8,-15.7,30.00,South,190,0.0,0.0,27,-99.99,,---,-99.99,VWS V14.01,2013-01-13 08:58:00,
2013-01-13 01:03:00,11.8,-15.7,30.00,South,190,0.0,0.0,27,-99.99,,---,-99.99,VWS V14.01,2013-01-13 09:03:00,
2013-01-13 01:08:00,11.8,-15.7,30.00,South,190,0.0,0.0,27,-99.99,,---,-99.99,VWS V14.01,2013-01-13 09:08:00,
2013-01-13 01:13:00,11.8,-15.7,30.00,South,190,0.0,0.0,27,-99.99,,---,-99.99,VWS V14.01,2013-01-13 09:13:00,
2013-01-13 01:18:00,11.8,-15.7,30.00,South,190,0.0,0.0,27,-99.99,,---,-99.99,VWS V14.01,2013-01-13 09:18:00,
2013-01-13 01:23:00,11.8,-15.7,30.00,South,190,0.0,0.0,27,-99.99,,---,-99.99,VWS V14.01,2013-01-13 09:23:00,
2013-01-13 01:28:00,11.8,-15.7,30.00,South,190,0.0,0.0,27,-99.99,,---,-99.99,VWS V14.01,2013-01-13 09:28:00,
2013-01-13 01:33:00,11.7,-15.9,30.00,South,190,0.0,0.0,27,-99.99,,---,-99.99,VWS V14.01,2013-01-13 09:33:00,
2013-01-13 01:38:00,11.7,-15.9,30.00,South,190,0.0,0.0,27,-99.99,,---,-99.99,VWS V14.01,2013-01-13 09:38:00,
2013-01-13 01:43:00,11.7,-15.9,30.00,South,190,0.0,0.0,27,-99.99,,---,-99.99,VWS V14.01,2013-01-13 09:43:00,
2013-01-13 01:48:00,11.5,-16.0,30.00,South,190,0.0,0.0,27,-99.99,,---,-99.99,VWS V14.01,2013-01-13 09:48:00,
2013-01-13 01:53:00,11.5,-16.0,30.00,South,190,0.0,0.0,27,-99.99,,---,-99.99,VWS V14.01,2013-01-13 09:53:00,
2013-01-13 01:58:00,11.3,-16.2,30.00,South,190,0.0,0.0,27,-99.99,,---,-99.99,VWS V14.01,2013-01-13 09:58:00,
2013-01-13 02:03:00,11.3,-16.2,30.00,South,190,0.0,0.0,27,-99.99,,---,-99.99,VWS V14.01,2013-01-13 10:03:00,
2013-01-13 02:08:00,11.3,-16.2,30.00,South,190,0.0,0.0,27,-99.99,,---,-99.99,VWS V14.01,2013-01-13 10:08:00,
2013-01-13 02:13:00,11.3,-16.2,30.00,South,190,0.0,0.0,27,-99.99,,---,-99.99,VWS V14.01,2013-01-13 10:13:00,
2013-01-13 02:18:00,11.1,-16.3,30.00,South,190,0.0,0.0,27,-99.99,,---,-99.99,VWS V14.01,2013-01-13 10:18:00,
2013-01-13 02:23:00,11.1,-16.3,30.00,South,190,0.0,0.0,27,-99.99,,---,-99.99,VWS V14.01,2013-01-13 10:23:00,
2013-01-13 02:28:00,10.9,-16.5,30.00,South,190,0.0,0.0,27,-99.99,,---,-99.99,VWS V14.01,2013-01-13 10:28:00,
2013-01-13 02:33:00,10.9,-16.5,30.00,South,190,0.0,0.0,27,-99.99,,---,-99.99,VWS V14.01,2013-01-13 10:33:00,
2013-01-13 02:38:00,10.9,-16.5,30.00,South,190,0.0,0.0,27,-99.99,,---,-99.99,VWS V14.01,2013-01-13 10:38:00,
2013-01-13 02:43:00,10.9,-16.5,30.00,South,190,0.0,0.0,27,-99.99,,---,-99.99,VWS V14.01,2013-01-13 10:43:00,
2013-01-13 02:48:00,10.9,-16.5,30.00,South,190,0.0,0.0,27,-99.99,,---,-99.99,VWS V14.01,2013-01-13 10:48:00,
2013-01-13 02:53:00,10.9,-16.5,30.00,South,190,0.0,0.0,27,-99.99,,---,-99.99,VWS V14.01,2013-01-13 10:53:00,
2013-01-13 02:58:00,11.1,-16.3,30.00,South,190,0.0,0.0,27,-99.99,,---,-99.99,VWS V14.01,2013-01-13 10:58:00,
2013-01-13 03:03:00,11.1,-16.3,30.00,South,190,0.0,0.0,27,-99.99,,---,-99.99,VWS V14.01,2013-01-13 11:03:00,
2013-01-13 03:08:00,10.9,-16.5,30.00,South,190,0.0,0.0,27,-99.99,,---,-99.99,VWS V14.01,2013-01-13 11:08:00,
2013-01-13 03:13:00,10.9,-16.5,30.00,South,190,0.0,0.0,27,-99.99,,---,-99.99,VWS V14.01,2013-01-13 11:13:00,
2013-01-13 03:18:00,10.9,-16.5,30.00,South,190,0.0,0.0,27,-99.99,,---,-99.99,VWS V14.01,2013-01-13 11:18:00,
2013-01-13 03:23:00,10.8,-16.6,30.00,South,190,0.0,0.0,27,-99.99,,---,-99.99,VWS V14.01,2013-01-13 11:23:00,
2013-01-13 03:28:00,10.8,-16.6,30.00,South,190,0.0,0.0,27,-99.99,,---,-99.99,VWS V14.01,2013-01-13 11:28:00,
2013-01-13 03:33:00,10.8,-16.6,30.00,South,190,0.0,0.0,27,-99.99,,---,-99.99,VWS V14.01,2013-01-13 11:33:00,
2013-01-13 03:38:00,10.8,-16.6,30.00,South,190,0.0,0.0,27,-99.99,,---,-99.99,VWS V14.01,2013-01-13 11:38:00,
2013-01-13 03:43:00,10.8,-16.6,30.00,South,190,0.0,0.0,27,-99.99,,---,-99.99,VWS V14.01,2013-01-13 11:43:00,
2013-01-13 03:48:00,10.8,-16.6,30.00,South,190,0.0,0.0,27,-99.99,,---,-99.99,VWS V14.01,2013-01-13 11:48:00,
2013-01-13 03:53:00,10.8,-16.6,30.00,South,190,0.0,0.0,27,-99.99,,---,-99.99,VWS V14.01,2013-01-13 11:53:00,
2013-01-13 03:58:00,10.9,-16.5,30.00,South,190,0.0,0.0,27,-99.99,,---,-99.99,VWS V14.01,2013-01-13 11:58:00,
2013-01-13 04:03:00,10.9,-16.5,30.00,South,189,0.0,0.0,27,-99.99,,---,-99.99,VWS V14.01,2013-01-13 12:03:00,
2013-01-13 04:08:00,11.1,-16.3,30.03,South,190,0.0,0.0,27,-99.99,,---,-99.99,VWS V14.01,2013-01-13 12:08:00,
2013-01-13 04:13:00,11.1,-16.3,30.03,South,190,0.0,0.0,27,-99.99,,---,-99.99,VWS V14.01,2013-01-13 12:13:00,
2013-01-13 04:19:00,11.7,-15.9,30.03,South,190,0.0,0.0,27,-99.99,,---,-99.99,VWS V14.01,2013-01-13 12:19:00,
2013-01-13 04:24:00,11.7,-15.9,30.03,South,190,0.0,0.0,27,-99.99,,---,-99.99,VWS V14.01,2013-01-13 12:24:00,
2013-01-13 04:29:00,11.7,-15.9,30.03,South,190,0.0,0.0,27,-99.99,,---,-99.99,VWS V14.01,2013-01-13 12:29:00,
2013-01-13 04:34:00,11.3,-16.2,30.00,South,190,0.0,0.0,27,-99.99,,---,-99.99,VWS V14.01,2013-01-13 12:34:00,
2013-01-13 04:39:00,11.3,-16.2,30.00,South,190,0.0,0.0,27,-99.99,,---,-99.99,VWS V14.01,2013-01-13 12:39:00,
2013-01-13 04:44:00,11.3,-16.2,30.00,South,190,0.0,0.0,27,-99.99,,---,-99.99,VWS V14.01,2013-01-13 12:44:00,
2013-01-13 04:49:00,11.3,-16.2,30.00,South,190,0.0,0.0,27,-99.99,,---,-99.99,VWS V14.01,2013-01-13 12:49:00,
2013-01-13 04:54:00,11.5,-16.0,30.00,South,190,0.0,0.0,27,-99.99,,---,-99.99,VWS V14.01,2013-01-13 12:54:00,
2013-01-13 04:59:00,11.5,-16.0,30.00,South,190,0.0,0.0,27,-99.99,,---,-99.99,VWS V14.01,2013-01-13 12:59:00,
2013-01-13 05:04:00,11.3,-16.2,30.03,South,190,0.0,0.0,27,-99.99,,---,-99.99,VWS V14.01,2013-01-13 13:04:00,
2013-01-13 05:09:00,11.1,-16.3,30.03,South,190,0.0,0.0,27,-99.99,,---,-99.99,VWS V14.01,2013-01-13 13:09:00,
2013-01-13 05:14:00,11.1,-16.3,30.03,South,190,0.0,0.0,27,-99.99,,---,-99.99,VWS V14.01,2013-01-13 13:14:00,
2013-01-13 05:19:00,10.6,-16.8,30.03,South,190,0.0,0.0,27,-99.99,,---,-99.99,VWS V14.01,2013-01-13 13:19:00,
2013-01-13 05:24:00,10.6,-16.8,30.03,South,190,0.0,0.0,27,-99.99,,---,-99.99,VWS V14.01,2013-01-13 13:24:00,
2013-01-13 05:29:00,10.6,-16.8,30.03,South,189,0.0,0.0,27,-99.99,,---,-99.99,VWS V14.01,2013-01-13 13:29:00,
2013-01-13 05:34:00,10.4,-17.0,30.03,South,190,0.0,0.0,27,-99.99,,---,-99.99,VWS V14.01,2013-01-13 13:34:00,
2013-01-13 05:39:00,10.4,-17.0,30.03,South,190,0.0,0.0,27,-99.99,,---,-99.99,VWS V14.01,2013-01-13 13:39:00,
2013-01-13 05:44:00,10.0,-17.3,30.03,South,190,0.0,0.0,27,-99.99,,---,-99.99,VWS V14.01,2013-01-13 13:44:00,
2013-01-13 05:49:00,10.0,-17.3,30.03,South,190,0.0,0.0,27,-99.99,,---,-99.99,VWS V14.01,2013-01-13 13:49:00,
2013-01-13 05:54:00,10.0,-17.3,30.03,South,190,0.0,0.0,27,-99.99,,---,-99.99,VWS V14.01,2013-01-13 13:54:00,
2013-01-13 05:59:00,10.0,-17.3,30.03,South,190,0.0,0.0,27,-99.99,,---,-99.99,VWS V14.01,2013-01-13 13:59:00,
2013-01-13 06:04:00,10.0,-17.3,30.03,South,190,0.0,0.0,27,-99.99,,---,-99.99,VWS V14.01,2013-01-13 14:04:00,
2013-01-13 06:09:00,10.0,-17.3,30.03,South,190,0.0,0.0,27,-99.99,,---,-99.99,VWS V14.01,2013-01-13 14:09:00,
2013-01-13 06:14:00,10.0,-17.3,30.03,South,190,0.0,0.0,27,-99.99,,---,-99.99,VWS V14.01,2013-01-13 14:14:00,
2013-01-13 06:19:00,10.0,-17.3,30.03,South,190,0.0,0.0,27,-99.99,,---,-99.99,VWS V14.01,2013-01-13 14:19:00,
2013-01-13 06:24:00,10.0,-17.3,30.03,South,190,0.0,0.0,27,-99.99,,---,-99.99,VWS V14.01,2013-01-13 14:24:00,
2013-01-13 06:29:00,10.0,-17.3,30.03,South,189,0.0,0.0,27,-99.99,,---,-99.99,VWS V14.01,2013-01-13 14:29:00,
2013-01-13 06:34:00,10.0,-17.3,30.03,South,190,0.0,0.0,27,-99.99,,---,-99.99,VWS V14.01,2013-01-13 14:34:00,
2013-01-13 06:39:00,10.0,-17.3,30.03,South,190,0.0,0.0,27,-99.99,,---,-99.99,VWS V14.01,2013-01-13 14:39:00,
2013-01-13 06:44:00,10.0,-17.3,30.03,South,190,0.0,0.0,27,-99.99,,---,-99.99,VWS V14.01,2013-01-13 14:44:00,
2013-01-13 06:49:00,10.0,-17.3,30.03,South,190,0.0,0.0,27,-99.99,,---,-99.99,VWS V14.01,2013-01-13 14:49:00,
2013-01-13 06:54:00,10.0,-17.3,30.03,South,190,0.0,0.0,27,-99.99,,---,-99.99,VWS V14.01,2013-01-13 14:54:00,
2013-01-13 06:59:00,9.9,-17.4,30.03,South,190,0.0,0.0,27,-99.99,,---,-99.99,VWS V14.01,2013-01-13 14:59:00,
2013-01-13 07:04:00,9.9,-17.4,30.03,South,190,0.0,0.0,27,-99.99,,---,-99.99,VWS V14.01,2013-01-13 15:04:00,
2013-01-13 07:09:00,9.9,-17.4,30.03,South,190,0.0,0.0,27,-99.99,,---,-99.99,VWS V14.01,2013-01-13 15:09:00,
2013-01-13 07:14:00,9.9,-17.4,30.03,South,190,0.0,0.0,27,-99.99,,---,-99.99,VWS V14.01,2013-01-13 15:14:00,
2013-01-13 07:19:00,9.9,-17.4,30.03,South,190,0.0,0.0,27,-99.99,,---,-99.99,VWS V14.01,2013-01-13 15:19:00,
2013-01-13 07:25:00,9.9,-17.4,30.03,South,190,0.0,0.0,27,-99.99,,---,-99.99,VWS V14.01,2013-01-13 15:25:00,
2013-01-13 07:30:00,9.9,-17.4,30.03,South,190,0.0,0.0,27,-99.99,,---,-99.99,VWS V14.01,2013-01-13 15:30:00,
2013-01-13 07:35:00,11.1,-16.3,30.03,South,190,0.0,0.0,27,-99.99,,---,-99.99,VWS V14.01,2013-01-13 15:35:00,
2013-01-13 07:40:00,11.1,-16.3,30.03,South,190,0.0,0.0,27,-99.99,,---,-99.99,VWS V14.01,2013-01-13 15:40:00,
2013-01-13 07:45:00,11.5,-16.0,30.03,South,190,0.0,0.0,27,-99.99,,---,-99.99,VWS V14.01,2013-01-13 15:45:00,
2013-01-13 07:50:00,11.8,-15.7,30.03,South,190,0.0,0.0,27,-99.99,,---,-99.99,VWS V14.01,2013-01-13 15:50:00,
2013-01-13 07:55:00,11.8,-15.7,30.03,South,190,0.0,0.0,27,-99.99,,---,-99.99,VWS V14.01,2013-01-13 15:55:00,
2013-01-13 08:00:00,12.6,-15.1,30.03,South,190,0.0,0.0,27,-99.99,,---,-99.99,VWS V14.01,2013-01-13 16:00:00,
2013-01-13 08:05:00,12.6,-15.1,30.03,South,190,0.0,0.0,27,-99.99,,---,-99.99,VWS V14.01,2013-01-13 16:05:00,
2013-01-13 08:10:00,13.5,-14.3,30.03,South,190,0.0,0.0,27,-99.99,,---,-99.99,VWS V14.01,2013-01-13 16:10:00,
2013-01-13 08:15:00,13.5,-14.3,30.03,South,190,0.0,0.0,27,-99.99,,---,-99.99,VWS V14.01,2013-01-13 16:15:00,
2013-01-13 08:20:00,13.5,-14.3,30.03,South,190,0.0,0.0,27,-99.99,,---,-99.99,VWS V14.01,2013-01-13 16:20:00,
2013-01-13 08:25:00,13.5,-14.3,30.03,South,190,0.0,0.0,27,-99.99,,---,-99.99,VWS V14.01,2013-01-13 16:25:00,
2013-01-13 08:30:00,13.5,-14.3,30.03,South,190,0.0,0.0,27,-99.99,,---,-99.99,VWS V14.01,2013-01-13 16:30:00,
2013-01-13 08:35:00,15.4,-11.1,30.03,South,190,0.0,0.0,29,-99.99,,---,-99.99,VWS V14.01,2013-01-13 16:35:00,
2013-01-13 08:40:00,15.4,-11.1,30.03,South,190,0.0,0.0,29,-99.99,,---,-99.99,VWS V14.01,2013-01-13 16:40:00,
2013-01-13 08:45:00,16.2,-11.2,30.03,South,190,0.0,0.0,28,-99.99,,---,-99.99,VWS V14.01,2013-01-13 16:45:00,
2013-01-13 08:50:00,16.9,-10.6,30.03,South,190,0.0,0.0,28,-99.99,,---,-99.99,VWS V14.01,2013-01-13 16:50:00,
2013-01-13 08:55:00,16.9,-10.6,30.03,South,190,0.0,0.0,28,-99.99,,---,-99.99,VWS V14.01,2013-01-13 16:55:00,
2013-01-13 09:00:00,18.1,-8.1,30.03,South,190,0.0,0.0,30,-99.99,,---,-99.99,VWS V14.01,2013-01-13 17:00:00,
2013-01-13 09:05:00,18.1,-8.1,30.03,South,190,0.0,0.0,30,-99.99,,---,-99.99,VWS V14.01,2013-01-13 17:05:00,
2013-01-13 09:10:00,18.7,-7.6,30.03,South,190,0.0,0.0,30,-99.99,,---,-99.99,VWS V14.01,2013-01-13 17:10:00,
2013-01-13 09:15:00,18.7,-7.6,30.03,South,190,0.0,0.0,30,-99.99,,---,-99.99,VWS V14.01,2013-01-13 17:15:00,
2013-01-13 09:20:00,19.9,-6.5,30.00,South,190,0.0,0.0,30,-99.99,,---,-99.99,VWS V14.01,2013-01-13 17:20:00,
2013-01-13 09:25:00,21.0,-4.2,30.00,South,190,0.0,0.0,32,-99.99,,---,-99.99,VWS V14.01,2013-01-13 17:25:00,
2013-01-13 09:30:00,21.0,-4.2,30.00,South,190,0.0,0.0,32,-99.99,,---,-99.99,VWS V14.01,2013-01-13 17:30:00,
2013-01-13 09:35:00,21.7,-3.6,30.00,South,190,0.0,0.0,32,-99.99,,---,-99.99,VWS V14.01,2013-01-13 17:35:00,
2013-01-13 09:40:00,21.7,-3.6,30.00,South,190,0.0,0.0,32,-99.99,,---,-99.99,VWS V14.01,2013-01-13 17:40:00,
2013-01-13 09:45:00,22.6,-2.8,30.00,South,190,0.0,0.0,32,-99.99,,---,-99.99,VWS V14.01,2013-01-13 17:45:00,
2013-01-13 09:50:00,22.8,-2.6,30.00,South,190,0.0,0.0,32,-99.99,,---,-99.99,VWS V14.01,2013-01-13 17:50:00,
2013-01-13 09:55:00,22.8,-2.6,30.00,South,190,0.0,0.0,32,-99.99,,---,-99.99,VWS V14.01,2013-01-13 17:55:00,
2013-01-13 10:00:00,21.9,-3.4,30.00,South,190,0.0,0.0,32,-99.99,,---,-99.99,VWS V14.01,2013-01-13 18:00:00,
2013-01-13 10:05:00,21.9,-3.4,30.00,South,190,0.0,0.0,32,-99.99,,---,-99.99,VWS V14.01,2013-01-13 18:05:00,
2013-01-13 10:10:00,21.9,-3.4,30.00,South,190,0.0,0.0,32,-99.99,,---,-99.99,VWS V14.01,2013-01-13 18:10:00,
2013-01-13 10:15:00,21.9,-3.4,30.00,South,190,0.0,0.0,32,-99.99,,---,-99.99,VWS V14.01,2013-01-13 18:15:00,
2013-01-13 10:20:00,22.3,-3.1,30.00,South,190,0.0,0.0,32,-99.99,,---,-99.99,VWS V14.01,2013-01-13 18:20:00,
2013-01-13 10:25:00,23.4,-2.1,30.00,South,190,0.0,0.0,32,-99.99,,---,-99.99,VWS V14.01,2013-01-13 18:25:00,
2013-01-13 10:30:00,23.4,-2.1,30.00,South,190,0.0,0.0,32,-99.99,,---,-99.99,VWS V14.01,2013-01-13 18:30:00,
2013-01-13 10:35:00,23.5,-2.0,30.00,South,190,0.0,0.0,32,-99.99,,---,-99.99,VWS V14.01,2013-01-13 18:35:00,
2013-01-13 10:40:00,23.5,-2.0,30.00,South,190,0.0,0.0,32,-99.99,,---,-99.99,VWS V14.01,2013-01-13 18:40:00,
2013-01-13 10:45:00,23.5,-2.0,30.00,South,190,0.0,0.0,32,-99.99,,---,-99.99,VWS V14.01,2013-01-13 18:45:00,
2013-01-13 10:50:00,23.5,-2.0,30.00,South,190,0.0,0.0,32,-99.99,,---,-99.99,VWS V14.01,2013-01-13 18:50:00,
2013-01-13 10:55:00,24.4,-1.2,29.97,South,190,0.0,0.0,32,-99.99,,---,-99.99,VWS V14.01,2013-01-13 18:55:00,
2013-01-13 11:00:00,24.4,-1.2,29.97,South,190,0.0,0.0,32,-99.99,,---,-99.99,VWS V14.01,2013-01-13 19:00:00,
2013-01-13 11:05:00,24.4,-1.2,29.97,South,190,0.0,0.0,32,-99.99,,---,-99.99,VWS V14.01,2013-01-13 19:05:00,
2013-01-13 11:10:00,24.4,-1.2,29.97,South,190,0.0,0.0,32,-99.99,,---,-99.99,VWS V14.01,2013-01-13 19:10:00,
2013-01-13 11:15:00,24.6,-1.0,29.97,South,190,0.0,0.0,32,-99.99,,---,-99.99,VWS V14.01,2013-01-13 19:15:00,
2013-01-13 11:20:00,24.8,-0.9,29.97,South,190,0.0,0.0,32,-99.99,,---,-99.99,VWS V14.01,2013-01-13 19:20:00,
2013-01-13 11:25:00,24.8,-0.9,29.97,South,190,0.0,0.0,32,-99.99,,---,-99.99,VWS V14.01,2013-01-13 19:25:00,
2013-01-13 11:30:00,24.8,-0.9,29.97,South,190,0.0,0.0,32,-99.99,,---,-99.99,VWS V14.01,2013-01-13 19:30:00,
2013-01-13 11:35:00,24.4,-1.2,29.97,South,190,0.0,0.0,32,-99.99,,---,-99.99,VWS V14.01,2013-01-13 19:35:00,
2013-01-13 11:40:00,24.4,-1.2,29.97,South,190,0.0,0.0,32,-99.99,,---,-99.99,VWS V14.01,2013-01-13 19:40:00,
2013-01-13 11:45:00,24.4,-1.2,29.97,South,190,0.0,0.0,32,-99.99,,---,-99.99,VWS V14.01,2013-01-13 19:45:00,
2013-01-13 11:50:00,24.4,-1.2,29.97,South,190,0.0,0.0,32,-99.99,,---,-99.99,VWS V14.01,2013-01-13 19:50:00,
2013-01-13 11:55:00,24.4,-1.2,29.97,South,190,0.0,0.0,32,-99.99,,---,-99.99,VWS V14.01,2013-01-13 19:55:00,
2013-01-13 12:00:00,24.3,-3.4,29.97,South,189,0.0,0.0,29,-99.99,,---,-99.99,VWS V14.01,2013-01-13 20:00:00,
2013-01-13 12:05:00,23.5,-4.0,29.94,South,190,0.0,0.0,29,-99.99,,---,-99.99,VWS V14.01,2013-01-13 20:05:00,
2013-01-13 12:10:00,23.7,-3.9,29.94,South,190,0.0,0.0,29,-99.99,,---,-99.99,VWS V14.01,2013-01-13 20:10:00,
2013-01-13 12:15:00,23.7,-3.9,29.94,South,190,0.0,0.0,29,-99.99,,---,-99.99,VWS V14.01,2013-01-13 20:15:00,
2013-01-13 12:20:00,21.7,-7.1,29.94,South,190,0.0,0.0,27,-99.99,,---,-99.99,VWS V14.01,2013-01-13 20:20:00,
2013-01-13 12:25:00,19.9,-8.6,29.94,South,190,0.0,0.0,27,-99.99,,---,-99.99,VWS V14.01,2013-01-13 20:25:00,
2013-01-13 12:30:00,19.9,-8.6,29.94,South,190,0.0,0.0,27,-99.99,,---,-99.99,VWS V14.01,2013-01-13 20:30:00,
2013-01-13 12:35:00,17.8,-12.1,29.94,South,190,0.0,0.0,25,-99.99,,---,-99.99,VWS V14.01,2013-01-13 20:35:00,
2013-01-13 12:40:00,17.8,-12.1,29.94,South,190,0.0,0.0,25,-99.99,,---,-99.99,VWS V14.01,2013-01-13 20:40:00,
2013-01-13 12:45:00,17.4,-11.6,29.94,South,190,0.0,0.0,26,-99.99,,---,-99.99,VWS V14.01,2013-01-13 20:45:00,
2013-01-13 12:50:00,17.4,-11.6,29.94,South,190,0.0,0.0,26,-99.99,,---,-99.99,VWS V14.01,2013-01-13 20:50:00,
2013-01-13 12:55:00,15.1,-13.6,29.94,South,190,0.0,0.0,26,-99.99,,---,-99.99,VWS V14.01,2013-01-13 20:55:00,
2013-01-13 13:00:00,14.4,-15.8,29.94,South,190,0.0,0.0,24,-99.99,,---,-99.99,VWS V14.01,2013-01-13 21:00:00,
2013-01-13 13:05:00,14.5,-15.7,29.94,South,190,0.0,0.0,24,-99.99,,---,-99.99,VWS V14.01,2013-01-13 21:05:00,
2013-01-13 13:10:00,14.2,-16.0,29.94,South,190,0.0,0.0,24,-99.99,,---,-99.99,VWS V14.01,2013-01-13 21:10:00,
2013-01-13 13:15:00,14.4,-15.8,29.94,South,189,0.0,0.0,24,-99.99,,---,-99.99,VWS V14.01,2013-01-13 21:15:00,
2013-01-13 13:20:00,14.0,-16.1,29.94,South,189,0.0,0.0,24,-99.99,,---,-99.99,VWS V14.01,2013-01-13 21:20:00,
2013-01-13 13:25:00,14.0,-16.1,29.94,South,190,0.0,0.0,24,-99.99,,---,-99.99,VWS V14.01,2013-01-13 21:25:00,
2013-01-13 13:30:00,14.5,-15.7,29.94,South,190,0.0,0.0,24,-99.99,,---,-99.99,VWS V14.01,2013-01-13 21:30:00,
2013-01-13 13:35:00,15.1,-15.2,29.94,South,190,0.0,0.0,24,-99.99,,---,-99.99,VWS V14.01,2013-01-13 21:35:00,
2013-01-13 13:40:00,15.1,-15.2,29.94,South,190,0.0,0.0,24,-99.99,,---,-99.99,VWS V14.01,2013-01-13 21:40:00,
2013-01-13 13:45:00,15.3,-15.1,29.94,South,190,0.0,0.0,24,-99.99,,---,-99.99,VWS V14.01,2013-01-13 21:45:00,
2013-01-13 13:50:00,15.3,-15.1,29.94,South,190,0.0,0.0,24,-99.99,,---,-99.99,VWS V14.01,2013-01-13 21:50:00,
2013-01-13 13:55:00,15.3,-15.1,29.94,South,190,0.0,0.0,24,-99.99,,---,-99.99,VWS V14.01,2013-01-13 21:55:00,
2013-01-13 14:00:00,15.6,-14.7,29.94,South,190,0.0,0.0,24,-99.99,,---,-99.99,VWS V14.01,2013-01-13 22:00:00,
2013-01-13 14:05:00,15.4,-14.9,29.94,South,190,0.0,0.0,24,-99.99,,---,-99.99,VWS V14.01,2013-01-13 22:05:00,
2013-01-13 14:10:00,15.3,-15.1,29.94,South,190,0.0,0.0,24,-99.99,,---,-99.99,VWS V14.01,2013-01-13 22:10:00,
2013-01-13 14:15:00,15.3,-15.1,29.94,South,190,0.0,0.0,24,-99.99,,---,-99.99,VWS V14.01,2013-01-13 22:15:00,
2013-01-13 14:20:00,14.7,-15.5,29.94,South,190,0.0,0.0,24,-99.99,,---,-99.99,VWS V14.01,2013-01-13 22:20:00,
2013-01-13 14:25:00,14.7,-15.5,29.94,South,190,0.0,0.0,24,-99.99,,---,-99.99,VWS V14.01,2013-01-13 22:25:00,
2013-01-13 14:30:00,14.5,-15.7,29.94,South,190,0.0,0.0,24,-99.99,,---,-99.99,VWS V14.01,2013-01-13 22:30:00,
2013-01-13 14:35:00,14.9,-15.4,29.94,South,190,0.0,0.0,24,-99.99,,---,-99.99,VWS V14.01,2013-01-13 22:35:00,
2013-01-13 14:40:00,14.5,-15.7,29.94,South,190,0.0,0.0,24,-99.99,,---,-99.99,VWS V14.01,2013-01-13 22:40:00,
2013-01-13 14:45:00,14.5,-15.7,29.94,South,190,0.0,0.0,24,-99.99,,---,-99.99,VWS V14.01,2013-01-13 22:45:00,
2013-01-13 14:50:00,14.4,-15.8,29.94,South,190,0.0,0.0,24,-99.99,,---,-99.99,VWS V14.01,2013-01-13 22:50:00,
2013-01-13 14:55:00,14.2,-16.0,29.94,South,190,0.0,0.0,24,-99.99,,---,-99.99,VWS V14.01,2013-01-13 22:55:00,
2013-01-13 15:01:00,13.6,-16.4,29.94,South,190,0.0,0.0,24,-99.99,,---,-99.99,VWS V14.01,2013-01-13 23:01:00,
2013-01-13 15:06:00,13.8,-16.3,29.94,South,190,0.0,0.0,24,-99.99,,---,-99.99,VWS V14.01,2013-01-13 23:06:00,
2013-01-13 15:11:00,13.5,-16.6,29.94,South,190,0.0,0.0,24,-99.99,,---,-99.99,VWS V14.01,2013-01-13 23:11:00,
2013-01-13 15:16:00,13.6,-16.4,29.94,South,190,0.0,0.0,24,-99.99,,---,-99.99,VWS V14.01,2013-01-13 23:16:00,
2013-01-13 15:21:00,13.6,-16.4,29.94,South,190,0.0,0.0,24,-99.99,,---,-99.99,VWS V14.01,2013-01-13 23:21:00,
2013-01-13 15:26:00,13.5,-16.6,29.94,South,190,0.0,0.0,24,-99.99,,---,-99.99,VWS V14.01,2013-01-13 23:26:00,
2013-01-13 15:31:00,13.3,-16.8,29.94,South,190,0.0,0.0,24,-99.99,,---,-99.99,VWS V14.01,2013-01-13 23:31:00,
2013-01-13 15:36:00,12.7,-17.2,29.94,South,190,0.0,0.0,24,-99.99,,---,-99.99,VWS V14.01,2013-01-13 23:36:00,
2013-01-13 15:41:00,12.6,-17.4,29.94,South,190,0.0,0.0,24,-99.99,,---,-99.99,VWS V14.01,2013-01-13 23:41:00,
2013-01-13 15:46:00,12.6,-17.4,29.94,South,190,0.0,0.0,24,-99.99,,---,-99.99,VWS V14.01,2013-01-13 23:46:00,
2013-01-13 15:51:00,12.6,-17.4,29.94,South,190,0.0,0.0,24,-99.99,,---,-99.99,VWS V14.01,2013-01-13 23:51:00,
2013-01-13 15:56:00,12.0,-17.8,29.94,South,190,0.0,0.0,24,-99.99,,---,-99.99,VWS V14.01,2013-01-13 23:56:00,
2013-01-13 16:01:00,12.0,-17.8,29.94,South,190,0.0,0.0,24,-99.99,,---,-99.99,VWS V14.01,2013-01-14 00:01:00,
2013-01-13 16:06:00,12.0,-17.8,100.00,South,190,0.0,0.0,24,-99.99,,---,-99.99,VWS V14.01,2013-01-14 00:06:00,
2013-01-13 16:11:00,11.8,-18.0,100.00,South,190,0.0,0.0,24,-99.99,,---,-99.99,VWS V14.01,2013-01-14 00:11:00,
2013-01-13 16:16:00,11.8,-18.0,100.00,South,190,0.0,0.0,24,-99.99,,---,-99.99,VWS V14.01,2013-01-14 00:16:00,
2013-01-13 16:21:00,11.8,-18.0,29.94,South,190,0.0,0.0,24,-99.99,,---,-99.99,VWS V14.01,2013-01-14 00:21:00,
2013-01-13 16:26:00,11.8,-18.0,29.94,South,190,0.0,0.0,24,-99.99,,---,-99.99,VWS V14.01,2013-01-14 00:26:00,
2013-01-13 16:31:00,11.8,-18.0,29.94,South,190,0.0,0.0,24,-99.99,,---,-99.99,VWS V14.01,2013-01-14 00:31:00,
2013-01-13 16:36:00,11.8,-18.0,29.94,South,190,0.0,0.0,24,-99.99,,---,-99.99,VWS V14.01,2013-01-14 00:36:00,
2013-01-13 16:41:00,9.3,-20.2,29.94,South,190,0.0,0.0,24,-99.99,,---,-99.99,VWS V14.01,2013-01-14 00:41:00,
2013-01-13 16:46:00,9.3,-20.2,29.91,South,190,0.0,0.0,24,-99.99,,---,-99.99,VWS V14.01,2013-01-14 00:46:00,
2013-01-13 16:51:00,9.3,-20.2,29.91,South,190,0.0,0.0,24,-99.99,,---,-99.99,VWS V14.01,2013-01-14 00:51:00,
2013-01-13 16:56:00,9.3,-20.2,29.91,South,190,0.0,0.0,24,-99.99,,---,-99.99,VWS V14.01,2013-01-14 00:56:00,
2013-01-13 17:01:00,9.3,-20.2,29.94,South,190,0.0,0.0,24,-99.99,,---,-99.99,VWS V14.01,2013-01-14 01:01:00,
2013-01-13 17:06:00,9.3,-20.2,29.94,South,190,0.0,0.0,24,-99.99,,---,-99.99,VWS V14.01,2013-01-14 01:06:00,
2013-01-13 17:11:00,9.3,-20.2,29.94,South,190,0.0,0.0,24,-99.99,,---,-99.99,VWS V14.01,2013-01-14 01:11:00,
2013-01-13 17:16:00,7.9,-21.4,29.94,South,190,0.0,0.0,24,-99.99,,---,-99.99,VWS V14.01,2013-01-14 01:16:00,
2013-01-13 17:21:00,7.9,-21.4,29.94,South,190,0.0,0.0,24,-99.99,,---,-99.99,VWS V14.01,2013-01-14 01:21:00,
2013-01-13 17:26:00,7.9,-21.4,29.94,South,190,0.0,0.0,24,-99.99,,---,-99.99,VWS V14.01,2013-01-14 01:26:00,
2013-01-13 17:31:00,7.9,-21.4,29.94,South,190,0.0,0.0,24,-99.99,,---,-99.99,VWS V14.01,2013-01-14 01:31:00,
2013-01-13 17:36:00,7.9,-21.4,29.94,South,190,0.0,0.0,24,-99.99,,---,-99.99,VWS V14.01,2013-01-14 01:36:00,
2013-01-13 17:41:00,7.9,-21.4,29.94,South,189,0.0,0.0,24,-99.99,,---,-99.99,VWS V14.01,2013-01-14 01:41:00,
2013-01-13 17:46:00,7.9,-21.4,29.94,South,190,0.0,0.0,24,-99.99,,---,-99.99,VWS V14.01,2013-01-14 01:46:00,
2013-01-13 17:51:00,7.9,-21.4,29.94,South,190,0.0,0.0,24,-99.99,,---,-99.99,VWS V14.01,2013-01-14 01:51:00,
2013-01-13 17:56:00,8.6,-20.8,29.97,South,190,0.0,0.0,24,-99.99,,---,-99.99,VWS V14.01,2013-01-14 01:56:00,
2013-01-13 18:01:00,8.6,-20.8,29.97,South,190,0.0,0.0,24,-99.99,,---,-99.99,VWS V14.01,2013-01-14 02:01:00,
2013-01-13 18:06:00,8.6,-20.8,29.97,South,190,0.0,0.0,24,-99.99,,---,-99.99,VWS V14.01,2013-01-14 02:06:00,
2013-01-13 18:11:00,8.6,-20.8,29.97,South,190,0.0,0.0,24,-99.99,,---,-99.99,VWS V14.01,2013-01-14 02:11:00,
2013-01-13 18:16:00,8.6,-20.8,29.97,South,190,0.0,0.0,24,-99.99,,---,-99.99,VWS V14.01,2013-01-14 02:16:00,
2013-01-13 18:21:00,8.6,-20.8,29.97,South,190,0.0,0.0,24,-99.99,,---,-99.99,VWS V14.01,2013-01-14 02:21:00,
2013-01-13 18:26:00,8.6,-20.8,29.97,South,190,0.0,0.0,24,-99.99,,---,-99.99,VWS V14.01,2013-01-14 02:26:00,
2013-01-13 18:31:00,9.7,-19.9,29.97,South,190,0.0,0.0,24,-99.99,,---,-99.99,VWS V14.01,2013-01-14 02:31:00,
2013-01-13 18:36:00,9.7,-19.9,29.97,South,190,0.0,0.0,24,-99.99,,---,-99.99,VWS V14.01,2013-01-14 02:36:00,
2013-01-13 18:41:00,9.7,-19.9,29.97,South,190,0.0,0.0,24,-99.99,,---,-99.99,VWS V14.01,2013-01-14 02:41:00,
2013-01-13 18:46:00,9.7,-19.9,29.97,South,190,0.0,0.0,24,-99.99,,---,-99.99,VWS V14.01,2013-01-14 02:46:00,
2013-01-13 18:51:00,9.7,-19.9,29.97,South,190,0.0,0.0,24,-99.99,,---,-99.99,VWS V14.01,2013-01-14 02:51:00,
2013-01-13 18:56:00,9.7,-19.9,29.97,South,188,0.0,0.0,24,-99.99,,---,-99.99,VWS V14.01,2013-01-14 02:56:00,
2013-01-13 19:01:00,9.7,-19.9,29.97,South,190,0.0,0.0,24,-99.99,,---,-99.99,VWS V14.01,2013-01-14 03:01:00,
2013-01-13 19:06:00,9.7,-19.9,29.97,South,190,0.0,0.0,24,-99.99,,---,-99.99,VWS V14.01,2013-01-14 03:06:00,
2013-01-13 19:11:00,11.5,-18.3,29.97,South,190,0.0,0.0,24,-99.99,,---,-99.99,VWS V14.01,2013-01-14 03:11:00,
2013-01-13 19:16:00,11.5,-18.3,29.97,South,189,0.0,0.0,24,-99.99,,---,-99.99,VWS V14.01,2013-01-14 03:16:00,
2013-01-13 19:21:00,11.5,-18.3,29.97,South,189,0.0,0.0,24,-99.99,,---,-99.99,VWS V14.01,2013-01-14 03:21:00,
2013-01-13 19:26:00,11.5,-18.3,29.97,South,189,0.0,0.0,24,-99.99,,---,-99.99,VWS V14.01,2013-01-14 03:26:00,
2013-01-13 19:31:00,10.8,-18.9,29.97,South,190,0.0,0.0,24,-99.99,,---,-99.99,VWS V14.01,2013-01-14 03:31:00,
2013-01-13 19:36:00,10.9,-18.8,30.00,South,190,0.0,0.0,24,-99.99,,---,-99.99,VWS V14.01,2013-01-14 03:36:00,
2013-01-13 19:41:00,10.9,-18.8,30.00,South,190,0.0,0.0,24,-99.99,,---,-99.99,VWS V14.01,2013-01-14 03:41:00,
2013-01-13 19:46:00,10.8,-18.9,30.00,South,190,0.0,0.0,24,-99.99,,---,-99.99,VWS V14.01,2013-01-14 03:46:00,
2013-01-13 19:51:00,10.8,-18.9,30.00,South,190,0.0,0.0,24,-99.99,,---,-99.99,VWS V14.01,2013-01-14 03:51:00,
2013-01-13 19:56:00,10.6,-19.1,30.00,South,190,0.0,0.0,24,-99.99,,---,-99.99,VWS V14.01,2013-01-14 03:56:00,
2013-01-13 20:01:00,10.6,-19.1,30.00,South,190,0.0,0.0,24,-99.99,,---,-99.99,VWS V14.01,2013-01-14 04:01:00,
2013-01-13 20:06:00,10.4,-19.2,30.00,South,190,0.0,0.0,24,-99.99,,---,-99.99,VWS V14.01,2013-01-14 04:06:00,
2013-01-13 20:11:00,10.8,-18.9,30.00,South,190,0.0,0.0,24,-99.99,,---,-99.99,VWS V14.01,2013-01-14 04:11:00,
2013-01-13 20:16:00,10.8,-18.9,30.00,South,190,0.0,0.0,24,-99.99,,---,-99.99,VWS V14.01,2013-01-14 04:16:00,
2013-01-13 20:21:00,10.4,-19.2,30.00,South,190,0.0,0.0,24,-99.99,,---,-99.99,VWS V14.01,2013-01-14 04:21:00,
2013-01-13 20:26:00,10.4,-19.2,30.00,South,190,0.0,0.0,24,-99.99,,---,-99.99,VWS V14.01,2013-01-14 04:26:00,
2013-01-13 20:31:00,10.2,-19.4,30.00,South,190,0.0,0.0,24,-99.99,,---,-99.99,VWS V14.01,2013-01-14 04:31:00,
2013-01-13 20:36:00,10.2,-19.4,30.00,South,190,0.0,0.0,24,-99.99,,---,-99.99,VWS V14.01,2013-01-14 04:36:00,
2013-01-13 20:41:00,9.9,-19.7,30.00,South,190,0.0,0.0,24,-99.99,,---,-99.99,VWS V14.01,2013-01-14 04:41:00,
2013-01-13 20:46:00,9.7,-19.9,30.00,South,190,0.0,0.0,24,-99.99,,---,-99.99,VWS V14.01,2013-01-14 04:46:00,
2013-01-13 20:51:00,9.7,-19.9,30.00,South,190,0.0,0.0,24,-99.99,,---,-99.99,VWS V14.01,2013-01-14 04:51:00,
2013-01-13 20:56:00,9.3,-20.2,30.00,South,190,0.0,0.0,24,-99.99,,---,-99.99,VWS V14.01,2013-01-14 04:56:00,
2013-01-13 21:00:00,9.3,-20.2,30.00,South,190,0.0,0.0,24,-99.99,,---,-99.99,VWS V14.01,2013-01-14 05:00:00,
2013-01-13 21:03:00,9.3,-20.2,30.00,South,190,0.0,0.0,24,-99.99,,---,-99.99,VWS V14.01,2013-01-14 05:03:00,
2013-01-13 21:08:00,9.1,-20.3,30.00,South,190,0.0,0.0,24,-99.99,,---,-99.99,VWS V14.01,2013-01-14 05:08:00,
2013-01-13 21:13:00,8.8,-20.6,30.00,South,190,0.0,0.0,24,-99.99,,---,-99.99,VWS V14.01,2013-01-14 05:13:00,
2013-01-13 21:18:00,8.8,-20.6,30.00,South,190,0.0,0.0,24,-99.99,,---,-99.99,VWS V14.01,2013-01-14 05:18:00,
2013-01-13 21:23:00,8.8,-20.6,30.00,South,190,0.0,0.0,24,-99.99,,---,-99.99,VWS V14.01,2013-01-14 05:23:00,
2013-01-13 21:28:00,8.6,-20.8,30.00,South,190,0.0,0.0,24,-99.99,,---,-99.99,VWS V14.01,2013-01-14 05:28:00,
2013-01-13 21:33:00,8.4,-20.9,30.00,South,190,0.0,0.0,24,-99.99,,---,-99.99,VWS V14.01,2013-01-14 05:33:00,
2013-01-13 21:38:00,8.6,-20.8,30.00,South,190,0.0,0.0,24,-99.99,,---,-99.99,VWS V14.01,2013-01-14 05:38:00,
2013-01-13 21:43:00,8.6,-20.8,30.00,South,190,0.0,0.0,24,-99.99,,---,-99.99,VWS V14.01,2013-01-14 05:43:00,
2013-01-13 21:48:00,8.6,-20.8,30.00,South,190,0.0,0.0,24,-99.99,,---,-99.99,VWS V14.01,2013-01-14 05:48:00,
2013-01-13 21:53:00,8.6,-20.8,30.00,South,190,0.0,0.0,24,-99.99,,---,-99.99,VWS V14.01,2013-01-14 05:53:00,
2013-01-13 21:58:00,8.6,-20.8,30.00,South,190,0.0,0.0,24,-99.99,,---,-99.99,VWS V14.01,2013-01-14 05:58:00,
2013-01-13 22:03:00,8.6,-20.8,30.00,South,190,0.0,0.0,24,-99.99,,---,-99.99,VWS V14.01,2013-01-14 06:03:00,
2013-01-13 22:08:00,8.6,-20.8,30.00,South,190,0.0,0.0,24,-99.99,,---,-99.99,VWS V14.01,2013-01-14 06:08:00,
2013-01-13 22:13:00,8.6,-20.8,30.00,South,190,0.0,0.0,24,-99.99,,---,-99.99,VWS V14.01,2013-01-14 06:13:00,
2013-01-13 22:18:00,8.6,-20.8,30.00,South,190,0.0,0.0,24,-99.99,,---,-99.99,VWS V14.01,2013-01-14 06:18:00,
2013-01-13 22:23:00,8.6,-20.8,30.00,South,190,0.0,0.0,24,-99.99,,---,-99.99,VWS V14.01,2013-01-14 06:23:00,
2013-01-13 22:28:00,8.6,-20.8,30.00,South,190,0.0,0.0,24,-99.99,,---,-99.99,VWS V14.01,2013-01-14 06:28:00,
2013-01-13 22:33:00,8.4,-20.9,30.03,South,190,0.0,0.0,24,-99.99,,---,-99.99,VWS V14.01,2013-01-14 06:33:00,
2013-01-13 22:38:00,8.1,-21.2,30.03,South,190,0.0,0.0,24,-99.99,,---,-99.99,VWS V14.01,2013-01-14 06:38:00,
2013-01-13 22:44:00,8.1,-21.2,30.03,South,190,0.0,0.0,24,-99.99,,---,-99.99,VWS V14.01,2013-01-14 06:44:00,
2013-01-13 22:49:00,8.1,-21.2,30.03,South,190,0.0,0.0,24,-99.99,,---,-99.99,VWS V14.01,2013-01-14 06:49:00,
2013-01-13 22:54:00,8.1,-21.2,30.00,South,190,0.0,0.0,24,-99.99,,---,-99.99,VWS V14.01,2013-01-14 06:54:00,
2013-01-13 22:59:00,8.2,-21.1,30.00,South,190,0.0,0.0,24,-99.99,,---,-99.99,VWS V14.01,2013-01-14 06:59:00,
2013-01-13 23:04:00,8.6,-20.8,30.03,South,190,0.0,0.0,24,-99.99,,---,-99.99,VWS V14.01,2013-01-14 07:04:00,
2013-01-13 23:09:00,8.8,-20.6,30.03,South,190,0.0,0.0,24,-99.99,,---,-99.99,VWS V14.01,2013-01-14 07:09:00,
2013-01-13 23:14:00,9.1,-20.3,30.03,South,190,0.0,0.0,24,-99.99,,---,-99.99,VWS V14.01,2013-01-14 07:14:00,
2013-01-13 23:19:00,9.1,-20.3,30.03,South,190,0.0,0.0,24,-99.99,,---,-99.99,VWS V14.01,2013-01-14 07:19:00,
2013-01-13 23:24:00,9.1,-20.3,30.00,South,190,0.0,0.0,24,-99.99,,---,-99.99,VWS V14.01,2013-01-14 07:24:00,
2013-01-13 23:29:00,9.1,-20.3,30.00,South,190,0.0,0.0,24,-99.99,,---,-99.99,VWS V14.01,2013-01-14 07:29:00,
2013-01-13 23:34:00,9.1,-20.3,30.00,South,190,0.0,0.0,24,-99.99,,---,-99.99,VWS V14.01,2013-01-14 07:34:00,
2013-01-13 23:39:00,8.6,-20.8,30.00,South,190,0.0,0.0,24,-99.99,,---,-99.99,VWS V14.01,2013-01-14 07:39:00,
2013-01-13 23:44:00,8.6,-20.8,30.00,South,190,0.0,0.0,24,-99.99,,---,-99.99,VWS V14.01,2013-01-14 07:44:00,
2013-01-13 23:49:00,8.4,-20.9,30.03,South,190,0.0,0.0,24,-99.99,,---,-99.99,VWS V14.01,2013-01-14 07:49:00,
2013-01-13 23:54:00,8.4,-20.9,30.03,South,190,0.0,0.0,24,-99.99,,---,-99.99,VWS V14.01,2013-01-14 07:54:00,
2013-01-13 23:59:00,8.1,-21.2,30.03,South,190,0.0,0.0,24,-99.99,,---,-99.99,VWS V14.01,2013-01-14 07:59:00,